Location: Stockholm
(59.3293°N, 18.0686°E)
Time: 22:53:00
(UTC+02:00)

ISS - Pass Details

Date: 26 March 2019
Orbit: 408 x 410 km, 51.6° (Epoch: 24 April)

Event Time Altitude Azimuth Distance (km) Brightness Sun altitude
Rises 19:24:43 0° 225° (SW) 2,334 0.4 -9.4°
Reaches altitude 10° 19:27:18 10° 204° (SSW) 1,474 -0.9 -9.7°
Maximum altitude 19:29:30 17° 162° (SSE) 1,131 -1.9 -10.0°
Enters shadow 19:30:49 14° 134° (SE) 1,264 -1.9 -10.1°
